DW0156 Weather Reports


time (UTC)temp
F
wind
direction
speed
knots
gust
knots
rain 1hr
in
rain 24hr
in
rain mn
in
humidity
%
barometer
mb
20260508160353 53 263 0.0 0.9 0.00 0.00 0.00 89 1029.2
20260508155227 53 263 0.0 1.7 0.00 0.00 0.00 89 1029.2
20260508154720 53 263 0.0 1.7 0.00 0.00 0.00 89 1029.2
20260508154230 53 263 0.0 0.0 0.00 0.00 0.00 89 1029.3
20260508153714 53 263 0.0 0.0 0.00 0.00 0.00 89 1029.3
20260508153202 53 263 0.0 0.0 0.00 0.00 0.00 89 1029.3
20260508152653 53 263 0.0 0.0 0.00 0.00 0.00 88 1029.5
20260508152153 53 263 0.0 0.0 0.00 0.00 0.00 88 1029.5
20260508151638 53 263 0.0 0.0 0.00 0.00 0.00 88 1029.5
20260508151146 53 263 0.0 0.0 0.00 0.00 0.00 88 1029.5
20260508150648 53 263 0.0 0.0 0.00 0.00 0.00 88 1029.5
20260508145530 54 263 0.0 0.0 0.00 0.00 0.00 88 1029.5
20260508145031 54 263 0.0 0.0 0.00 0.00 0.00 88 1029.5
20260508144531 54 263 0.0 0.0 0.00 0.00 0.00 88 1029.5
20260508144027 54 263 0.0 0.0 0.00 0.00 0.00 87 1029.6
20260508143526 54 263 0.0 0.0 0.00 0.00 0.00 87 1029.6
20260508142401 54 263 0.0 0.0 0.00 0.00 0.00 87 1029.6
20260508141854 54 263 0.0 0.0 0.00 0.00 0.00 87 1029.6
20260508141400 54 263 0.0 0.0 0.00 0.00 0.00 87 1029.6
20260508135606 54 263 0.0 0.0 0.00 0.00 0.00 87 1029.7
20260508135114 54 263 0.0 1.7 0.00 0.00 0.00 87 1029.7
20260508134554 54 263 0.0 1.7 0.00 0.00 0.00 87 1029.7
20260508134100 54 263 0.0 1.7 0.00 0.00 0.00 86 1030.0
20260508133549 55 263 0.0 0.0 0.00 0.00 0.00 86 1030.0
20260508133036 55 263 0.0 0.0 0.00 0.00 0.00 86 1030.0
20260508132528 55 263 0.0 0.0 0.00 0.00 0.00 86 1030.1
20260508132035 55 263 0.0 0.0 0.00 0.00 0.00 86 1030.1
20260508130908 55 263 0.0 2.6 0.00 0.00 0.00 86 1030.1
20260508130403 55 263 0.0 2.6 0.00 0.00 0.00 86 1030.1
20260508125854 55 263 0.0 1.7 0.00 0.00 0.00 85 1030.1
20260508125357 55 263 0.0 0.9 0.00 0.00 0.00 85 1030.1
20260508124224 55 263 0.0 2.6 0.00 0.00 0.00 85 1030.1
20260508123725 55 263 0.9 2.6 0.00 0.00 0.00 85 1030.1
20260508123228 56 263 0.9 2.6 0.00 0.00 0.00 85 1030.1
20260508122728 56 263 0.0 2.6 0.00 0.00 0.00 85 1030.1
20260508122214 56 263 0.0 1.7 0.00 0.00 0.00 84 1030.1
20260508121716 56 263 0.9 1.7 0.00 0.00 0.00 84 1030.1
20260508121216 56 263 0.9 1.7 0.00 0.00 0.00 84 1030.1
20260508120712 56 263 0.0 1.7 0.00 0.00 0.00 83 1030.1
20260508114934 56 263 0.0 0.9 0.00 0.00 0.00 83 1030.1
20260508114440 57 263 0.0 0.0 0.00 0.00 0.00 83 1030.1
20260508113926 57 263 0.0 1.7 0.00 0.00 0.00 82 1030.1
20260508112807 57 263 0.0 1.7 0.00 0.00 0.00 81 1030.1
20260508112253 57 263 0.0 3.5 0.00 0.00 0.00 81 1030.1
20260508111736 57 263 0.0 3.5 0.00 0.00 0.00 81 1030.1
20260508110604 58 263 1.7 4.3 0.00 0.00 0.00 81 1030.1
20260508110112 58 263 1.7 4.3 0.00 0.00 0.00 81 1030.1
20260508105608 58 263 1.7 4.3 0.00 0.00 0.00 80 1030.1
20260508105049 58 263 1.7 3.5 0.00 0.00 0.00 80 1030.1
20260508104531 58 263 1.7 3.5 0.00 0.00 0.00 80 1030.1
20260508104011 58 263 0.9 4.3 0.00 0.00 0.00 79 1030.1
20260508103501 58 263 1.7 4.3 0.00 0.00 0.00 79 1030.1
20260508102949 59 263 2.6 4.3 0.00 0.00 0.00 79 1030.1
20260508102457 59 263 2.6 4.3 0.00 0.00 0.00 79 1030.1
20260508101951 59 263 1.7 7.0 0.00 0.00 0.00 78 1030.1
20260508101438 59 263 1.7 7.0 0.00 0.00 0.00 78 1030.1
20260508100934 59 263 1.7 7.0 0.00 0.00 0.00 78 1030.0
20260508095823 59 263 1.7 5.2 0.00 0.00 0.00 78 1030.0
20260508095325 59 263 1.7 4.3 0.00 0.00 0.00 78 1030.0
20260508094833 59 263 0.9 4.3 0.00 0.00 0.00 77 1030.0
20260508094332 59 263 0.9 3.5 0.00 0.00 0.00 77 1029.9
20260508093817 59 263 0.0 3.5 0.00 0.00 0.00 77 1029.9
20260508093301 59 263 0.0 3.5 0.00 0.00 0.00 77 1029.9
20260508092752 59 263 0.0 1.7 0.00 0.00 0.00 77 1029.6
20260508091610 59 263 0.0 2.6 0.00 0.00 0.00 77 1029.6
20260508091059 60 263 0.0 2.6 0.00 0.00 0.00 78 1029.6
20260508090601 60 263 0.9 5.2 0.00 0.00 0.00 78 1029.6
20260508090059 60 263 0.9 5.2 0.00 0.00 0.00 78 1029.6
20260508084949 60 263 0.9 3.5 0.00 0.00 0.00 78 1029.6
20260508084437 60 263 0.9 3.5 0.00 0.00 0.00 78 1029.6
20260508083319 60 263 0.9 4.3 0.00 0.00 0.00 79 1029.5
20260508082811 60 263 0.9 4.3 0.00 0.00 0.00 79 1029.5
20260508082257 60 263 0.9 7.0 0.00 0.00 0.00 79 1029.5
20260508081738 60 263 1.7 7.0 0.00 0.00 0.00 79 1029.5
20260508081223 60 263 1.7 7.0 0.00 0.00 0.00 79 1029.2
20260508075426 61 263 2.6 7.8 0.00 0.00 0.00 78 1029.1
20260508074919 61 263 2.6 9.6 0.00 0.00 0.00 77 1029.1
20260508074426 61 263 3.5 9.6 0.00 0.00 0.00 77 1029.1
20260508073908 62 263 3.5 9.6 0.00 0.00 0.00 76 1029.0
20260508072737 62 263 2.6 8.7 0.00 0.00 0.00 77 1029.0
20260508072237 62 263 3.5 11.3 0.00 0.00 0.00 77 1029.0
20260508071728 62 263 4.3 11.3 0.00 0.00 0.00 77 1029.0
20260508071215 62 263 4.3 11.3 0.00 0.00 0.00 76 1029.0
20260508070056 62 263 3.5 8.7 0.00 0.00 0.00 78 1029.0
20260508065545 62 263 4.3 9.6 0.00 0.00 0.00 78 1029.1
20260508064408 62 263 3.5 9.6 0.00 0.00 0.00 76 1029.1
20260508063902 62 263 3.5 8.7 0.00 0.00 0.00 74 1029.0
20260508063355 63 263 2.6 8.7 0.00 0.00 0.00 74 1029.0
20260508062842 63 263 2.6 7.8 0.00 0.00 0.00 74 1029.0
20260508062324 63 263 3.5 12.2 0.00 0.00 0.00 76 1029.0
20260508061819 63 263 3.5 12.2 0.00 0.00 0.00 76 1029.0
20260508061310 63 263 4.3 12.2 0.00 0.00 0.00 76 1029.0
20260508060157 63 263 6.1 12.2 0.00 0.00 0.00 76 1029.0
20260508055042 63 263 7.0 12.2 0.00 0.00 0.00 77 1029.0
20260508053900 62 263 5.2 11.3 0.00 0.00 0.00 76 1029.0
20260508053345 62 263 5.2 11.3 0.00 0.00 0.00 75 1029.0
20260508052840 62 263 5.2 11.3 0.00 0.00 0.00 76 1029.0
20260508051716 63 263 3.5 10.4 0.00 0.00 0.00 76 1029.0
20260508051201 63 263 4.3 12.2 0.00 0.00 0.00 76 1029.0
20260508050655 63 263 4.3 12.2 0.00 0.00 0.00 75 1029.0
20260508050157 63 263 5.2 12.2 0.00 0.00 0.00 75 1029.0
20260508045021 63 263 5.2 11.3 0.00 0.00 0.00 73 1029.0
20260508043227 64 263 3.5 10.4 0.00 0.00 0.00 71 1029.0
20260508041447 64 263 3.5 10.4 0.00 0.00 0.00 71 1029.2
20260508040928 64 263 5.2 10.4 0.00 0.00 0.00 72 1029.3
20260508040415 64 263 4.3 10.4 0.00 0.00 0.00 74 1029.3
20260508035858 64 263 3.5 12.2 0.00 0.00 0.00 75 1029.5
20260508034723 62 263 4.3 12.2 0.00 0.00 0.00 78 1029.5
20260508034229 62 263 3.5 12.2 0.00 0.00 0.00 78 1029.6
20260508033734 61 263 3.5 9.6 0.00 0.00 0.00 80 1029.6
20260508033238 61 263 4.3 9.6 0.00 0.00 0.00 81 1029.6
20260508032732 61 263 4.3 9.6 0.00 0.00 0.00 83 1029.9
20260508032242 61 263 4.3 9.6 0.00 0.00 0.00 84 1029.9
20260508031731 61 263 4.3 8.7 0.00 0.00 0.00 86 1029.9
20260508030548 60 263 3.5 8.7 0.00 0.00 0.00 86 1030.1
20260508030041 60 263 4.3 12.2 0.00 0.00 0.00 85 1030.1
20260508025532 61 263 5.2 12.2 0.00 0.00 0.00 86 1030.1
20260508025026 61 263 5.2 12.2 0.00 0.00 0.00 85 1030.1
20260508024519 61 263 3.5 12.2 0.00 0.00 0.00 85 1030.1
20260508023959 61 263 2.6 11.3 0.00 0.00 0.00 86 1030.2
20260508023456 61 263 2.6 11.3 0.00 0.00 0.00 86 1030.2
20260508022337 60 263 3.5 9.6 0.00 0.00 0.00 87 1030.6
20260508021829 60 263 2.6 7.8 0.00 0.00 0.00 88 1030.6
20260508021318 60 263 3.5 10.4 0.00 0.00 0.00 87 1030.6
20260508020802 60 263 3.5 11.3 0.00 0.00 0.00 87 1030.6
20260508015655 60 263 5.2 11.3 0.00 0.00 0.00 86 1030.7
20260508015202 60 263 4.3 11.3 0.00 0.00 0.00 86 1030.7
20260508014655 60 263 2.6 10.4 0.00 0.00 0.00 87 1030.7
20260508014155 60 263 3.5 10.4 0.00 0.00 0.00 87 1031.1
20260508013046 59 263 3.5 9.6 0.00 0.00 0.00 86 1031.1
20260508012535 60 263 3.5 10.4 0.00 0.00 0.00 87 1031.1
20260508012030 59 263 4.3 10.4 0.00 0.00 0.00 86 1031.1
20260508011528 60 263 4.3 10.4 0.00 0.00 0.00 86 1031.1
20260508011018 60 263 3.5 10.4 0.00 0.00 0.00 85 1031.1
20260508010506 60 263 3.5 7.0 0.00 0.00 0.00 86 1031.1
20260508005346 59 263 2.6 8.7 0.00 0.00 0.00 86 1031.1
20260508004837 59 263 2.6 8.7 0.00 0.00 0.00 86 1031.1
20260508004317 59 263 2.6 8.7 0.00 0.00 0.00 85 1031.1
20260508003804 59 263 2.6 7.8 0.00 0.00 0.00 85 1031.1
20260508003300 59 263 2.6 7.8 0.00 0.00 0.00 84 1031.1
20260508002800 59 263 1.7 5.2 0.00 0.00 0.00 84 1031.0
20260508002252 59 263 1.7 5.2 0.00 0.00 0.00 84 1031.0
20260508001757 59 263 1.7 5.2 0.00 0.00 0.00 84 1031.0
20260508001242 59 263 1.7 5.2 0.00 0.00 0.00 84 1031.1
20260508000726 59 263 1.7 5.2 0.00 0.00 0.00 84 1031.1
20260508000212 58 263 1.7 5.2 0.00 0.00 0.00 83 1031.1
20260507235656 58 263 1.7 5.2 0.00 0.00 0.00 82 1031.0
20260507235158 58 263 1.7 7.8 0.00 0.00 0.00 82 1031.0
20260507234036 58 263 2.6 7.8 0.00 0.00 0.00 81 1030.9
20260507233537 58 263 2.6 7.8 0.00 0.00 0.00 81 1030.9
20260507233032 58 263 1.7 7.0 0.00 0.00 0.00 81 1030.9
20260507232515 58 263 1.7 7.0 0.00 0.00 0.00 81 1030.7
20260507232011 58 263 3.5 7.0 0.00 0.00 0.00 80 1030.7
20260507231511 58 263 3.5 9.6 0.00 0.00 0.00 80 1030.7
20260507231018 59 263 3.5 9.6 0.00 0.00 0.00 79 1030.7
20260507230523 59 263 3.5 9.6 0.00 0.00 0.00 79 1030.7
20260507224907 59 263 1.7 4.3 0.00 0.00 0.00 77 1030.6
20260507224350 59 263 0.9 4.3 0.00 0.00 0.00 77 1030.4
20260507223838 59 263 1.7 4.3 0.00 0.00 0.00 77 1030.4
20260507223321 59 263 1.7 7.0 0.00 0.00 0.00 77 1030.4
20260507222822 59 263 1.7 7.0 0.00 0.00 0.00 77 1030.2
20260507222321 59 263 2.6 7.0 0.00 0.00 0.00 77 1030.2
20260507221819 59 263 1.7 6.1 0.00 0.00 0.00 77 1030.2
20260507221324 59 263 1.7 11.3 0.00 0.00 0.00 77 1030.1
20260507220814 59 263 1.7 11.3 0.00 0.00 0.00 77 1030.1
20260507220316 59 263 2.6 11.3 0.00 0.00 0.00 76 1030.1
20260507215759 59 263 1.7 11.3 0.00 0.00 0.00 76 1029.7
20260507215307 58 263 0.9 6.1 0.00 0.00 0.00 76 1029.7
20260507214806 58 263 1.7 6.1 0.00 0.00 0.00 76 1029.7
20260507214307 58 263 1.7 6.1 0.00 0.00 0.00 76 1029.6
20260507213753 58 263 1.7 6.1 0.00 0.00 0.00 76 1029.6
20260507213240 58 263 1.7 5.2 0.00 0.00 0.00 77 1029.6
20260507212721 58 263 0.9 3.5 0.00 0.00 0.00 77 1029.6
20260507212220 58 263 0.9 3.5 0.00 0.00 0.00 77 1029.6
20260507211715 58 263 0.9 3.5 0.00 0.00 0.00 77 1029.6
20260507211220 58 263 0.9 3.5 0.00 0.00 0.00 77 1029.5
20260507210711 58 263 0.9 3.5 0.00 0.00 0.00 78 1029.5
20260507210218 58 263 0.9 4.3 0.00 0.00 0.00 78 1029.5
20260507205718 58 263 0.9 4.3 0.00 0.00 0.00 78 1029.5
20260507205158 57 263 0.9 4.3 0.00 0.00 0.00 78 1029.5
20260507204707 57 263 0.9 4.3 0.00 0.00 0.00 78 1029.5
20260507204210 57 263 0.9 3.5 0.00 0.00 0.00 78 1029.5
20260507203715 57 263 0.9 3.5 0.00 0.00 0.00 78 1029.5
20260507203207 57 263 0.0 3.5 0.00 0.00 0.00 78 1029.5
20260507202705 57 263 0.0 3.5 0.00 0.00 0.00 78 1029.5
20260507202148 57 263 0.0 3.5 0.00 0.00 0.00 78 1029.5
20260507201629 57 263 0.0 0.9 0.00 0.00 0.00 78 1029.5
20260507201120 57 263 0.0 0.9 0.00 0.00 0.00 78 1029.5
20260507195948 57 263 0.0 0.0 0.00 0.00 0.00 78 1029.5
20260507195451 57 263 0.0 0.0 0.00 0.00 0.00 78 1029.6
20260507194958 57 263 0.0 2.6 0.00 0.00 0.00 78 1029.6
20260507193829 57 263 0.0 1.7 0.00 0.00 0.00 77 1029.6
20260507193339 57 263 0.0 0.9 0.00 0.00 0.00 77 1029.6
20260507192840 57 263 0.0 0.0 0.00 0.00 0.00 77 1029.5
20260507192346 57 263 0.0 0.0 0.00 0.00 0.00 77 1029.5
20260507191854 57 263 0.0 0.0 0.00 0.00 0.00 77 1029.5
20260507191355 57 263 0.9 3.5 0.00 0.00 0.00 77 1029.5
20260507190855 57 263 0.9 7.8 0.00 0.00 0.00 77 1029.5
20260507185730 57 263 1.7 7.8 0.00 0.00 0.00 76 1029.3
20260507185221 57 263 0.9 4.3 0.00 0.00 0.00 77 1029.3
20260507184711 57 263 1.7 4.3 0.00 0.00 0.00 77 1029.3
20260507184219 57 263 0.9 4.3 0.00 0.00 0.00 77 1029.3
20260507183055 57 263 0.0 0.0 0.00 0.00 0.00 78 1029.3
20260507182537 57 263 0.0 0.0 0.00 0.00 0.00 78 1029.5
20260507182020 57 263 0.0 0.0 0.00 0.00 0.00 78 1029.5
20260507181504 57 263 0.0 2.6 0.00 0.00 0.00 79 1029.5
20260507181007 57 263 0.9 4.3 0.00 0.00 0.00 79 1029.4
20260507175343 57 263 1.7 5.2 0.00 0.00 0.00 80 1029.5
20260507174221 57 263 1.7 4.3 0.00 0.00 0.00 81 1029.6
20260507173706 57 263 1.7 4.3 0.00 0.00 0.00 81 1029.6
20260507173155 57 263 0.9 4.3 0.00 0.00 0.00 81 1029.6
20260507172648 57 263 0.9 4.3 0.00 0.00 0.00 81 1029.5
20260507172143 57 263 1.7 4.3 0.00 0.00 0.00 81 1029.5
20260507171650 57 263 1.7 7.8 0.00 0.00 0.00 81 1029.5
20260507171136 57 263 1.7 7.8 0.00 0.00 0.00 81 1029.5
20260507170004 57 263 0.9 5.2 0.00 0.00 0.00 81 1029.5
20260507165502 57 263 1.7 5.2 0.00 0.00 0.00 81 1029.7
20260507164951 57 263 1.7 5.2 0.00 0.00 0.00 80 1029.7
20260507164433 57 263 0.9 5.2 0.00 0.00 0.00 80 1029.7
20260507163245 57 263 0.0 0.0 0.00 0.00 0.00 79 1029.8
20260507162736 57 263 0.0 1.7 0.00 0.00 0.00 79 1029.8
20260507162222 57 263 0.9 7.8 0.00 0.00 0.00 79 1029.8